TimeEST,TemperatureF,Dew PointF,Humidity,Sea Level PressureIn,VisibilityMPH,Wind Direction,Wind SpeedMPH,Gust SpeedMPH,PrecipitationIn,Events,Conditions,WindDirDegrees,DateUTC
12:00 AM,35.6,23.0,60,29.92,10.0,South,17.3,20.7,N/A,,Clear,170,2013-02-19 05:00:00
12:20 AM,35.6,23.0,60,29.92,10.0,South,16.1,21.9,N/A,,Clear,180,2013-02-19 05:20:00
12:40 AM,35.6,23.0,60,29.91,10.0,South,16.1,20.7,N/A,,Clear,170,2013-02-19 05:40:00
1:00 AM,35.6,23.0,60,29.92,10.0,South,15.0,-,N/A,,Clear,180,2013-02-19 06:00:00
1:20 AM,35.6,23.0,60,29.91,10.0,South,17.3,21.9,N/A,,Clear,180,2013-02-19 06:20:00
2:00 AM,37.4,21.2,52,29.88,10.0,South,16.1,-,N/A,,Clear,170,2013-02-19 07:00:00
2:20 AM,37.4,21.2,52,29.88,10.0,South,13.8,21.9,N/A,,Scattered Clouds,170,2013-02-19 07:20:00
2:40 AM,37.4,21.2,52,29.86,10.0,South,12.7,-,N/A,,Mostly Cloudy,170,2013-02-19 07:40:00
3:00 AM,37.4,21.2,52,29.84,10.0,SSE,13.8,-,N/A,,Mostly Cloudy,160,2013-02-19 08:00:00
3:20 AM,37.4,21.2,52,29.84,10.0,South,15.0,-,N/A,,Overcast,170,2013-02-19 08:20:00
3:40 AM,37.4,21.2,52,29.83,10.0,South,13.8,20.7,N/A,,Mostly Cloudy,180,2013-02-19 08:40:00
4:00 AM,37.4,23.0,56,29.82,10.0,South,9.2,-,N/A,,Overcast,190,2013-02-19 09:00:00
4:20 AM,39.2,23.0,52,29.80,10.0,SSW,10.4,-,N/A,,Overcast,200,2013-02-19 09:20:00
4:40 AM,39.2,23.0,52,29.81,10.0,South,8.1,-,N/A,,Overcast,190,2013-02-19 09:40:00
5:20 AM,39.2,24.8,56,29.80,10.0,South,11.5,16.1,N/A,,Overcast,190,2013-02-19 10:20:00
5:40 AM,39.2,24.8,56,29.78,10.0,SSW,18.4,23.0,N/A,,Overcast,210,2013-02-19 10:40:00
6:00 AM,35.6,32.0,87,29.79,10.0,SSW,17.3,26.5,N/A,,Overcast,210,2013-02-19 11:00:00
6:20 AM,33.8,32.0,93,29.78,5.0,SSW,18.4,23.0,N/A,,Overcast,200,2013-02-19 11:20:00
6:40 AM,32.0,32.0,100,29.76,4.0,South,17.3,26.5,N/A,,Overcast,190,2013-02-19 11:40:00
7:20 AM,32.0,32.0,100,29.74,2.5,South,12.7,-,N/A,,Overcast,180,2013-02-19 12:20:00
7:40 AM,32.0,32.0,100,29.75,4.0,South,13.8,21.9,N/A,,Overcast,190,2013-02-19 12:40:00
8:00 AM,32.0,32.0,100,29.74,10.0,South,17.3,24.2,N/A,,Overcast,190,2013-02-19 13:00:00
8:20 AM,33.8,33.8,100,29.73,10.0,SSW,18.4,25.3,N/A,,Overcast,200,2013-02-19 13:20:00
9:00 AM,33.8,33.8,100,29.72,7.0,SSW,12.7,21.9,N/A,,Overcast,200,2013-02-19 14:00:00
9:20 AM,33.8,33.8,100,29.72,5.0,SSW,12.7,21.9,N/A,,Overcast,200,2013-02-19 14:20:00
9:40 AM,33.8,33.8,100,29.71,7.0,SSW,16.1,20.7,N/A,,Overcast,200,2013-02-19 14:40:00
10:00 AM,33.8,33.8,100,29.71,5.0,SSW,15.0,19.6,N/A,,Overcast,210,2013-02-19 15:00:00
10:20 AM,33.8,33.8,100,29.71,5.0,SSW,12.7,21.9,N/A,,Overcast,200,2013-02-19 15:20:00
10:40 AM,33.8,33.8,100,29.71,5.0,SSW,13.8,26.5,N/A,,Overcast,210,2013-02-19 15:40:00
11:00 AM,33.8,33.8,100,29.70,5.0,SW,13.8,25.3,N/A,,Overcast,220,2013-02-19 16:00:00
11:20 AM,33.8,33.8,100,29.70,7.0,SSW,16.1,21.9,N/A,,Overcast,210,2013-02-19 16:20:00
12:00 PM,33.8,33.8,100,29.68,10.0,SW,18.4,29.9,N/A,,Overcast,220,2013-02-19 17:00:00
12:20 PM,33.8,33.8,100,29.67,7.0,SW,12.7,24.2,N/A,,Overcast,220,2013-02-19 17:20:00
12:40 PM,35.6,35.6,100,29.66,10.0,SSW,12.7,21.9,N/A,,Overcast,210,2013-02-19 17:40:00
1:00 PM,35.6,35.6,100,29.65,10.0,SW,12.7,21.9,N/A,,Overcast,230,2013-02-19 18:00:00
1:20 PM,35.6,35.6,100,29.63,10.0,SW,15.0,24.2,N/A,,Overcast,220,2013-02-19 18:20:00
2:00 PM,33.8,33.8,100,29.64,1.0,WSW,17.3,31.1,N/A,,Overcast,250,2013-02-19 19:00:00
2:20 PM,32.0,32.0,100,29.65,0.2,West,20.7,32.2,N/A,Fog,Fog,260,2013-02-19 19:20:00
2:40 PM,32.0,32.0,100,29.65,1.0,WSW,17.3,26.5,N/A,,Overcast,250,2013-02-19 19:40:00
3:00 PM,32.0,32.0,100,29.66,10.0,WSW,17.3,29.9,N/A,,Overcast,250,2013-02-19 20:00:00
3:20 PM,32.0,32.0,100,29.67,5.0,West,18.4,34.5,N/A,,Overcast,260,2013-02-19 20:20:00
3:40 PM,32.0,32.0,100,29.68,10.0,West,18.4,27.6,N/A,,Overcast,260,2013-02-19 20:40:00
4:00 PM,32.0,32.0,100,29.68,10.0,WSW,15.0,21.9,N/A,,Overcast,250,2013-02-19 21:00:00
4:20 PM,32.0,30.2,93,29.69,10.0,West,11.5,25.3,N/A,,Overcast,260,2013-02-19 21:20:00
4:40 PM,32.0,28.4,87,29.69,10.0,West,12.7,27.6,N/A,,Overcast,270,2013-02-19 21:40:00
5:00 PM,30.2,28.4,93,29.70,10.0,West,17.3,28.8,N/A,,Overcast,260,2013-02-19 22:00:00
5:40 PM,30.2,23.0,75,29.72,10.0,West,19.6,27.6,N/A,,Overcast,260,2013-02-19 22:40:00
6:00 PM,30.2,23.0,75,29.73,10.0,West,18.4,35.7,N/A,,Overcast,270,2013-02-19 23:00:00
6:20 PM,28.4,21.2,74,29.74,10.0,West,17.3,35.7,N/A,,Overcast,260,2013-02-19 23:20:00
7:25 PM,26.6,21.2,80,29.77,7.0,West,17.3,28.8,N/A,,Overcast,280,2013-02-20 00:25:00
8:05 PM,26.6,19.4,74,29.77,10.0,West,19.6,35.7,N/A,,Overcast,260,2013-02-20 01:05:00
8:25 PM,26.6,19.4,74,29.78,2.5,West,16.1,28.8,N/A,,Haze,270,2013-02-20 01:25:00
8:45 PM,23.0,23.0,100,29.79,2.0,West,17.3,27.6,N/A,,Overcast,270,2013-02-20 01:45:00
9:05 PM,23.0,23.0,100,29.78,5.0,West,15.0,21.9,N/A,,Overcast,270,2013-02-20 02:05:00
9:25 PM,23.0,23.0,100,29.79,1.0,West,17.3,25.3,N/A,,Overcast,270,2013-02-20 02:25:00
9:45 PM,23.0,23.0,100,29.79,1.0,West,15.0,29.9,N/A,,Overcast,270,2013-02-20 02:45:00
10:05 PM,23.0,21.2,93,29.78,5.0,WSW,16.1,26.5,N/A,,Overcast,250,2013-02-20 03:05:00
10:25 PM,23.0,23.0,100,29.78,0.8,West,18.4,24.2,N/A,,Overcast,270,2013-02-20 03:25:00
10:45 PM,21.2,21.2,100,29.79,1.0,West,16.1,28.8,N/A,,Mostly Cloudy,280,2013-02-20 03:45:00
11:25 PM,19.4,19.4,100,29.80,0.5,West,13.8,26.5,N/A,Fog,Light Freezing Fog,270,2013-02-20 04:25:00
11:45 PM,19.4,19.4,100,29.80,1.8,West,17.3,26.5,N/A,,Overcast,270,2013-02-20 04:45:00